Date,TemperatureHighF,TemperatureAvgF,TemperatureLowF,DewpointHighF,DewpointAvgF,DewpointLowF,HumidityHigh,HumidityAvg,HumidityLow,PressureMaxIn,PressureMinIn,WindSpeedMaxMPH,WindSpeedAvgMPH,GustSpeedMaxMPH,PrecipitationSumIn
2013-1-1,77.9,73.0,66.3,60.4,51.7,47.9,77,48,38,30.14,29.99,10,4,23,0.00
2013-1-2,79.8,67.1,60.4,68.0,57.8,53.2,77,73,41,30.03,29.97,5,1,11,0.00
2013-1-3,79.8,73.3,66.4,70.4,64.7,59.0,77,75,60,30.07,29.97,8,2,16,0.00
2013-1-4,79.4,72.0,66.3,71.6,64.4,58.9,77,77,77,30.17,30.05,5,2,99,0.00
2013-1-5,74.9,69.4,66.1,67.2,61.9,58.7,77,77,77,30.19,30.10,6,2,112,0.17
2013-1-6,79.9,73.1,65.6,72.0,65.5,58.2,77,77,77,30.13,30.00,9,3,20,0.00
2013-1-7,75.1,71.1,67.6,67.4,63.5,60.1,77,77,77,30.10,30.01,7,1,13,0.21
2013-1-8,80.5,75.8,70.8,72.6,68.0,63.2,77,77,77,30.15,30.02,9,4,19,0.25
2013-1-9,79.9,76.5,74.4,72.0,68.8,66.7,77,77,77,30.22,30.10,9,6,19,0.00
2013-1-10,79.9,76.7,75.1,71.4,67.2,57.8,77,73,49,30.24,30.13,12,7,22,0.00
2013-1-11,79.0,76.0,74.2,71.2,68.3,66.5,77,77,77,30.20,30.10,10,6,19,0.00
2013-1-12,79.9,76.1,73.3,69.8,66.7,63.9,77,73,61,30.12,30.03,9,5,17,0.00
2013-1-13,79.8,75.7,73.3,70.3,64.6,55.0,77,69,50,30.07,30.01,9,6,18,0.00
2013-1-14,79.2,75.4,72.1,67.0,60.2,54.8,76,60,45,30.11,30.05,8,4,18,0.00
2013-1-15,79.0,75.4,72.5,68.3,63.1,58.5,77,66,50,30.08,29.99,9,5,17,0.00
2013-1-16,80.3,73.9,65.5,71.6,65.8,58.1,77,76,68,30.05,29.96,8,3,17,0.00
2013-1-17,80.5,71.0,61.3,72.6,63.4,54.0,77,77,73,30.02,29.91,10,3,23,0.42
2013-1-18,71.1,63.2,51.7,61.1,51.3,44.7,77,66,43,30.16,30.03,10,4,18,0.00
2013-1-19,73.0,69.7,66.6,65.1,60.4,55.0,77,73,56,30.16,30.04,7,2,13,0.35
2013-1-20,78.1,70.8,64.7,69.9,63.2,57.3,77,77,70,30.08,29.95,7,2,14,0.12
2013-1-21,78.1,70.7,66.1,70.3,63.1,58.7,77,77,77,30.01,29.90,8,2,17,0.26
2013-1-22,74.9,68.2,62.6,61.9,53.4,40.8,77,61,37,30.16,29.94,11,5,21,0.00
2013-1-23,73.7,67.5,60.9,58.1,47.1,38.2,77,51,28,30.24,30.14,6,3,15,0.00
2013-1-24,73.7,65.4,59.3,53.4,43.3,18.7,77,51,15,30.23,30.14,7,2,17,0.00
2013-1-25,60.9,59.5,58.9,53.0,51.7,49.8,77,75,71,30.19,30.16,1,0,4,0.00
2013-1-26,76.5,68.0,59.3,61.2,52.4,41.0,77,61,28,30.19,30.10,6,2,13,0.00
2013-1-27,77.6,70.3,62.1,63.3,54.0,43.3,77,59,31,30.23,30.14,7,3,16,0.00
2013-1-28,78.6,74.9,72.1,66.7,57.9,52.8,77,56,43,30.25,30.17,9,7,18,0.00
2013-1-29,78.1,74.4,71.3,70.3,66.6,63.7,77,77,71,30.17,30.07,10,5,20,0.04
2013-1-30,77.9,74.5,72.0,67.0,62.7,58.1,77,67,51,30.06,29.91,13,6,26,0.00
2013-1-31,72.5,67.0,62.6,64.9,57.0,43.7,77,71,46,30.06,29.89,8,3,19,0.00
2013-2-1,72.1,61.7,52.8,49.9,39.7,23.3,68,46,27,30.21,30.10,11,5,22,0.00
2013-2-2,72.8,63.2,55.1,52.9,36.9,19.7,77,41,24,30.20,30.06,7,2,15,0.00
2013-2-3,73.0,62.7,54.5,51.4,36.1,-6.7,77,46,4,30.11,30.00,8,2,16,0.00
2013-2-4,73.9,62.3,50.2,53.6,37.5,8.7,77,47,8,30.08,29.96,8,2,15,0.00
2013-2-5,76.0,66.8,54.7,64.0,52.9,42.8,77,64,32,30.02,29.94,5,2,14,0.00
2013-2-6,78.3,70.4,61.0,67.8,58.9,51.8,77,68,46,30.04,29.96,8,3,14,0.00
2013-2-7,78.1,73.4,71.3,66.2,62.5,60.2,77,69,56,30.01,29.97,7,4,15,0.00
2013-2-8,82.2,73.5,68.4,71.0,62.4,45.7,77,70,30,29.97,29.85,7,3,24,0.00
2013-2-9,77.7,68.8,65.2,68.3,61.1,57.8,77,76,67,30.07,29.95,5,1,13,0.00
2013-2-10,75.1,72.1,69.6,63.2,57.4,54.2,77,60,50,30.20,30.09,12,8,22,0.00
2013-2-11,77.7,73.6,70.4,62.2,56.8,53.2,69,56,45,30.16,30.05,10,6,20,0.00
2013-2-12,79.8,74.1,65.2,70.3,65.4,57.8,77,75,63,30.06,29.91,11,4,22,0.00
2013-2-13,81.4,75.5,69.1,73.5,67.8,61.6,77,77,77,29.95,29.83,11,4,23,0.00
2013-2-14,77.2,70.1,63.2,69.4,62.5,55.9,77,77,77,29.94,29.79,8,3,21,1.48
2013-2-15,72.5,66.7,63.4,64.9,59.3,56.1,77,77,77,29.96,29.88,5,1,13,0.41
2013-2-16,71.1,64.6,55.0,62.8,49.4,31.0,77,61,23,30.02,29.81,11,5,24,0.01
2013-2-17,57.0,51.0,44.1,36.9,-8.0,-99.9,52,20,1,30.24,30.02,10,5,23,0.00
2013-2-18,67.8,59.2,47.0,50.5,32.1,18.0,55,36,26,30.26,30.14,11,6,20,0.00
2013-2-19,76.7,71.5,62.6,65.7,54.5,40.7,77,57,36,30.14,30.02,10,5,22,0.04
2013-2-20,76.8,70.3,63.1,68.4,61.9,54.8,77,75,50,30.05,29.95,7,2,15,0.04
2013-2-21,79.9,73.6,65.8,71.4,65.9,58.4,77,77,75,30.03,29.93,8,3,16,0.00
2013-2-22,80.3,75.9,73.2,72.4,68.2,65.6,77,77,77,30.04,29.95,11,7,22,0.00
2013-2-23,81.8,75.9,69.6,73.9,68.2,62.1,77,77,77,29.99,29.85,11,6,24,0.85
2013-2-24,84.9,76.0,70.8,74.8,68.0,63.2,77,76,51,29.93,29.84,8,3,16,0.00
2013-2-25,82.4,75.6,69.3,74.5,67.9,61.8,77,77,77,29.85,29.75,10,4,21,0.01
2013-2-26,82.6,78.3,75.1,74.7,70.5,67.4,77,77,77,29.83,29.73,12,5,24,0.00
2013-2-27,77.2,70.1,62.4,69.4,62.0,55.1,77,76,57,29.91,29.80,4,2,16,0.65
2013-2-28,70.1,63.7,59.0,57.4,47.9,21.4,77,61,16,29.94,29.85,5,2,14,0.00
2013-3-1,64.7,61.7,58.4,55.9,44.0,35.2,77,54,35,29.92,29.84,5,2,13,0.00
2013-3-2,64.8,57.6,52.3,44.6,28.1,12.7,61,34,16,29.97,29.89,12,4,29,0.00
2013-3-3,60.2,53.8,49.4,43.8,30.7,20.8,77,44,23,30.08,29.90,9,4,22,0.00
2013-3-4,64.0,53.4,41.8,41.6,21.4,-19.3,66,35,3,30.15,30.05,7,3,16,0.00
2013-3-5,73.3,62.6,48.8,53.4,45.9,41.1,77,57,33,30.12,30.02,9,2,18,0.00
2013-3-6,76.7,64.7,53.6,65.8,38.9,-20.5,77,52,2,30.03,29.88,11,5,25,0.01
2013-3-7,69.4,58.6,47.9,56.6,35.5,21.2,77,46,16,30.11,30.00,6,3,15,0.00
2013-3-8,72.0,62.6,52.9,54.0,42.4,16.4,77,53,12,30.14,30.04,6,2,15,0.00
2013-3-9,73.5,65.4,56.5,55.8,44.7,39.0,77,50,31,30.13,30.04,7,3,18,0.00
2013-3-10,74.6,70.3,66.8,53.0,44.5,39.1,56,40,29,30.11,30.01,10,6,19,0.00
2013-3-11,76.8,72.1,69.1,55.4,50.7,44.3,56,47,32,30.03,29.90,11,7,22,0.00
2013-3-12,78.5,74.2,70.3,69.2,60.0,54.1,77,62,49,29.93,29.85,12,6,27,0.00
2013-3-13,73.2,65.2,57.2,62.7,47.6,23.1,77,58,17,30.06,29.91,11,4,20,0.00
2013-3-14,69.6,60.7,54.4,51.5,36.3,11.5,77,45,11,30.14,30.02,10,5,21,0.00
2013-3-15,70.3,62.1,52.9,48.8,40.1,34.3,70,46,29,30.18,30.09,8,3,16,0.00
2013-3-16,73.7,65.2,55.0,56.4,44.1,31.7,77,51,22,30.13,30.02,8,3,18,0.00
2013-3-17,75.4,68.5,59.6,58.4,51.6,44.9,77,57,36,30.09,29.97,10,3,18,0.00
2013-3-18,78.6,72.7,67.3,66.5,59.2,53.2,77,63,49,30.01,29.90,12,5,25,0.62
2013-3-19,77.6,72.3,68.4,69.8,64.7,60.9,77,77,77,29.95,29.77,7,2,20,0.00
2013-3-20,79.6,72.0,64.5,71.8,63.7,49.6,77,76,42,29.91,29.74,9,3,22,0.01
2013-3-21,74.4,66.0,58.6,58.9,45.5,23.7,77,54,15,29.88,29.76,7,3,17,0.00
2013-3-22,75.1,67.4,54.8,66.3,54.5,47.7,77,65,39,29.94,29.84,9,4,20,0.04
2013-3-23,83.8,77.1,71.8,75.8,69.3,64.2,77,77,77,29.93,29.74,11,4,23,0.00
2013-3-24,88.6,79.5,72.8,79.1,67.1,55.0,77,68,32,29.83,29.61,14,6,33,0.02
2013-3-25,78.3,73.3,65.2,67.2,44.1,-9.8,77,49,4,29.92,29.68,7,4,18,0.04
2013-3-26,66.3,60.4,53.5,27.0,9.9,-99.9,32,16,1,30.14,29.92,9,6,22,0.00
2013-3-27,66.0,56.5,46.5,42.4,28.0,10.7,61,35,14,30.18,30.10,7,4,18,0.00
2013-3-28,69.6,57.8,50.5,47.3,38.1,18.9,77,53,15,30.20,30.12,7,2,16,0.00
2013-3-29,73.5,64.9,55.7,41.4,36.2,29.0,57,36,20,30.22,30.14,8,3,16,0.00
2013-3-30,74.2,68.8,61.8,43.4,37.5,24.1,50,33,16,30.20,30.10,8,4,17,0.00
2013-3-31,78.8,72.6,65.3,65.6,54.6,42.5,77,54,39,30.13,29.98,10,6,22,0.00
2013-4-1,85.3,76.4,71.5,73.0,62.8,45.5,77,66,25,29.99,29.91,9,4,21,0.00
2013-4-2,79.6,73.3,66.1,67.9,62.0,54.8,77,69,43,30.01,29.93,7,3,15,0.00
2013-4-3,82.2,76.6,73.0,73.2,68.6,65.4,77,76,62,30.00,29.93,9,5,18,0.00
2013-4-4,83.0,75.5,68.9,75.0,67.8,61.4,77,77,77,29.99,29.85,11,6,28,0.66
2013-4-5,73.7,68.8,66.0,66.0,61.3,58.6,77,77,77,29.92,29.76,9,4,20,0.42
2013-4-6,77.2,68.7,59.0,68.7,60.1,51.8,77,74,56,30.02,29.85,9,4,19,0.00
2013-4-7,77.0,73.7,71.1,65.1,58.1,49.4,77,60,41,30.08,29.96,9,6,19,0.00
2013-4-8,79.0,73.4,62.7,65.5,54.6,47.3,77,54,33,30.07,29.98,7,3,13,0.00
2013-4-9,79.9,75.5,72.3,69.0,64.4,54.9,77,69,43,30.09,29.99,10,6,19,0.19
2013-4-10,82.2,77.2,73.9,74.3,69.4,66.2,77,77,77,30.04,29.94,9,6,20,0.00
2013-4-11,81.8,77.8,75.6,73.9,70.0,67.9,77,77,77,29.96,29.84,12,8,23,0.00
2013-4-12,84.9,79.6,76.5,76.9,71.7,68.7,77,77,77,29.88,29.81,12,7,24,0.09
2013-4-13,84.0,76.6,70.9,76.0,68.9,63.3,77,77,77,29.91,29.81,9,2,20,0.91
2013-4-14,84.1,78.9,71.6,76.1,71.1,64.0,77,77,77,29.91,29.84,11,5,20,0.00
2013-4-15,85.9,77.3,70.4,77.8,69.6,62.8,77,77,77,29.99,29.86,10,3,21,0.63
2013-4-16,83.2,77.5,71.6,75.2,69.7,64.0,77,77,77,30.05,29.96,9,3,17,0.02
2013-4-17,76.7,76.1,75.1,68.9,68.3,67.4,77,77,77,30.05,29.99,5,3,12,0.00
2013-4-18,84.3,79.7,76.1,75.6,70.2,65.2,77,73,59,30.00,29.91,9,6,19,0.00
2013-4-19,84.3,80.6,76.5,76.3,72.7,68.7,77,77,77,29.99,29.90,12,8,24,0.11
2013-4-20,85.9,77.7,72.7,77.8,70.0,65.1,77,77,77,30.01,29.90,9,4,20,0.30
2013-4-21,82.2,77.2,72.1,74.3,69.4,64.5,77,77,77,30.03,29.92,11,4,19,0.00
2013-4-22,82.8,75.3,72.0,74.8,67.6,64.4,77,77,77,29.98,29.87,9,2,18,0.11
2013-4-23,81.6,75.4,68.6,71.9,61.3,51.7,77,63,41,30.02,29.89,9,4,22,0.00
2013-4-24,81.8,76.9,73.0,59.4,53.0,49.2,60,44,34,30.07,29.97,8,5,16,0.00
2013-4-25,80.5,76.3,72.8,56.0,50.3,46.5,53,41,31,30.14,30.01,7,4,15,0.00
2013-4-26,81.1,76.1,71.3,58.6,54.0,49.8,56,47,36,30.16,30.05,7,4,17,0.00
2013-4-27,80.5,76.7,73.5,59.3,53.0,48.2,56,44,33,30.14,30.02,10,6,20,0.00
2013-4-28,81.6,77.0,73.7,55.3,51.5,46.6,51,41,31,30.05,29.93,9,7,18,0.00
2013-4-29,82.0,77.9,75.1,70.1,59.6,51.2,77,54,40,29.97,29.88,10,6,20,0.00
2013-4-30,83.2,77.0,71.8,73.2,68.7,64.2,77,76,56,29.93,29.86,9,3,19,0.03
2013-5-1,83.0,75.3,70.6,75.0,67.6,63.0,77,77,77,29.94,29.86,7,2,17,0.17
2013-5-2,77.7,73.2,68.1,69.9,65.5,60.6,77,77,77,29.88,29.74,13,5,24,2.62
2013-5-3,84.7,74.4,68.9,74.5,66.5,61.4,77,76,53,29.75,29.61,11,3,22,1.27
2013-5-4,85.7,76.0,68.1,74.5,64.1,52.6,77,69,34,29.73,29.62,7,3,17,0.01
2013-5-5,79.9,73.5,66.4,71.0,53.8,20.0,77,57,11,29.86,29.68,6,4,16,0.00
2013-5-6,82.2,71.9,59.3,66.7,53.2,41.6,77,55,24,29.94,29.85,6,2,15,0.00
2013-5-7,83.0,72.5,62.4,64.2,55.0,38.7,77,58,21,29.99,29.91,8,3,18,0.00
2013-5-8,83.2,73.5,62.7,67.6,54.4,32.2,77,55,16,30.07,29.97,7,2,13,0.00
2013-5-9,84.5,77.2,66.9,71.9,63.3,53.8,77,64,41,30.07,29.99,8,3,18,0.00
2013-5-10,85.9,80.6,75.4,75.8,69.9,60.2,77,71,45,30.07,29.96,10,4,20,0.00
2013-5-11,85.3,79.3,73.5,77.3,71.5,65.8,77,77,77,30.01,29.91,11,4,24,0.12
2013-5-12,86.5,77.8,72.5,78.4,69.9,64.9,77,77,67,29.99,29.87,9,3,25,0.48
2013-5-13,85.9,77.5,72.1,76.7,67.2,49.0,77,72,28,30.02,29.92,6,2,16,0.01
2013-5-14,80.5,76.4,73.7,68.7,50.1,39.3,77,43,24,30.11,30.00,7,4,17,0.00
2013-5-15,80.3,76.4,73.2,54.8,48.1,40.9,49,37,25,30.13,30.03,8,6,18,0.00
2013-5-16,81.8,76.8,72.1,58.9,48.9,44.2,55,38,29,30.05,29.98,7,4,16,0.00
2013-5-17,83.6,78.4,71.8,73.7,66.7,52.5,77,68,44,30.02,29.94,9,4,16,0.00
2013-5-18,84.5,79.4,74.2,76.5,71.5,66.5,77,77,77,30.04,29.97,9,4,20,0.00
2013-5-19,83.8,79.9,76.5,72.0,65.0,56.5,77,62,42,30.03,29.94,7,4,15,0.00
2013-5-20,79.8,75.9,70.1,71.9,68.1,62.6,77,77,71,30.01,29.91,8,3,23,2.15
2013-5-21,81.2,75.9,69.9,73.3,68.2,62.4,77,77,77,29.98,29.87,10,4,20,0.09
2013-5-22,82.8,77.4,72.3,74.8,69.6,64.7,77,77,77,29.91,29.83,8,3,18,0.10
2013-5-23,90.7,81.2,74.6,77.5,68.2,38.0,77,68,16,29.94,29.84,7,3,17,0.00
2013-5-24,88.2,82.1,76.3,80.1,72.8,54.6,77,74,32,29.99,29.88,6,3,14,0.00
2013-5-25,84.1,79.4,73.0,73.3,62.4,48.9,77,59,30,30.09,29.97,8,4,18,0.07
2013-5-26,83.2,78.9,74.7,65.4,54.2,38.0,68,43,25,30.11,30.03,9,5,20,0.00
2013-5-27,82.4,78.8,74.6,70.7,64.2,51.3,77,62,41,30.09,30.00,11,7,24,0.06
2013-5-28,81.6,78.3,74.4,73.7,70.5,66.7,77,77,77,30.05,29.98,13,8,24,0.47
2013-5-29,81.4,76.7,71.3,73.5,68.9,63.7,77,77,77,30.03,29.96,13,7,31,4.16
2013-5-30,82.0,78.0,72.3,74.1,70.2,64.7,77,77,77,30.01,29.94,15,10,29,0.50
2013-5-31,83.0,78.9,74.6,75.0,71.1,66.9,77,77,77,30.00,29.94,12,8,23,0.31
2013-6-1,83.0,78.2,74.7,75.0,70.4,67.0,77,77,77,29.96,29.90,8,3,16,0.20
2013-6-2,87.4,79.3,72.5,79.3,71.4,64.9,77,77,77,29.94,29.86,9,2,19,0.00
2013-6-3,85.5,79.2,73.9,77.5,71.3,66.2,77,77,77,29.97,29.85,8,2,16,0.13
2013-6-4,83.6,78.8,74.0,75.6,71.0,66.3,77,77,77,29.99,29.89,6,2,11,0.02
2013-6-5,83.2,81.2,79.8,75.2,73.3,71.9,77,77,77,29.95,29.84,9,4,15,0.04
2013-6-6,86.1,80.2,76.1,78.0,72.4,68.4,77,77,77,29.84,29.71,15,7,30,0.79
2013-6-7,90.1,78.9,75.1,81.9,71.1,67.4,77,77,77,29.88,29.77,8,2,17,0.03
2013-6-8,84.7,78.8,74.6,76.7,71.0,66.9,77,77,77,30.04,29.90,8,2,17,0.41
2013-6-9,86.5,82.6,79.8,78.4,74.7,71.9,77,77,77,30.05,29.97,10,6,18,0.00
2013-6-10,86.7,82.9,80.3,78.6,75.0,72.4,77,77,77,30.02,29.94,9,5,18,0.00
2013-6-11,86.3,82.8,80.5,78.2,74.9,72.6,77,77,77,30.02,29.94,9,4,18,0.00
2013-6-12,86.5,81.3,78.1,78.4,73.4,70.3,77,77,77,30.01,29.95,7,1,12,0.00
2013-6-13,87.6,80.4,75.4,79.5,72.5,67.7,77,77,77,29.98,29.87,7,2,15,0.04
2013-6-14,91.8,81.0,75.1,80.3,71.2,56.3,77,73,31,29.90,29.81,9,2,18,0.27
2013-6-15,88.8,81.9,75.6,80.7,74.0,67.9,77,77,77,29.99,29.85,7,2,13,0.00
2013-6-16,88.0,82.9,76.8,79.9,75.0,69.0,77,77,77,30.02,29.95,7,3,16,0.00
2013-6-17,88.6,84.2,79.6,80.5,76.2,71.8,77,77,77,30.01,29.94,8,4,18,0.00
2013-6-18,88.6,84.3,79.9,79.9,74.8,70.8,77,73,58,30.00,29.92,9,4,18,0.00
2013-6-19,88.6,83.3,78.6,80.5,75.4,70.8,77,77,77,29.98,29.92,9,3,18,0.25
2013-6-20,88.8,82.4,74.7,79.9,72.7,67.0,77,73,53,30.02,29.95,8,3,18,0.01
2013-6-21,88.6,84.0,79.0,78.4,71.2,64.3,77,67,46,30.05,29.96,8,4,17,0.00
2013-6-22,84.7,81.6,80.1,75.2,71.9,67.3,77,73,56,30.03,29.97,5,3,13,0.00
2013-6-23,88.2,83.5,79.2,76.5,69.0,62.5,77,63,43,30.06,29.98,10,6,18,0.00
2013-6-24,88.0,84.0,81.1,69.6,65.5,60.9,68,54,43,30.10,30.01,9,6,18,0.00
2013-6-25,87.8,83.3,79.0,77.5,71.1,63.0,77,68,50,30.06,29.98,10,5,19,0.00
2013-6-26,88.6,83.9,79.4,75.4,69.2,62.5,77,63,43,30.02,29.94,9,5,20,0.00
2013-6-27,86.7,82.0,76.3,77.7,73.2,67.3,77,75,57,29.99,29.89,7,2,14,0.33
2013-6-28,88.6,81.4,74.9,80.3,72.9,64.8,77,76,46,29.93,29.80,10,3,25,0.15
2013-6-29,84.9,77.1,74.4,76.9,69.4,66.7,77,77,77,29.86,29.80,9,1,20,0.01
2013-7-7,86.7,83.4,80.7,78.6,75.5,72.8,77,77,77,30.04,29.96,10,6,18,0.00
2013-7-8,86.7,83.4,80.5,78.4,74.1,69.3,77,74,58,30.08,30.00,8,4,16,0.00
2013-7-9,86.1,80.9,75.4,78.0,73.0,67.7,77,77,73,30.07,29.98,9,2,18,0.09
2013-7-10,83.8,78.7,71.8,75.8,70.8,64.2,77,77,77,30.02,29.94,7,3,16,0.46
2013-7-11,88.2,82.7,77.2,80.1,74.8,69.4,77,77,77,29.98,29.88,9,3,18,0.00
2013-7-12,88.8,80.1,74.4,80.3,72.2,66.7,77,77,61,29.90,29.84,9,2,21,0.04
2013-7-13,85.7,76.8,73.0,77.7,69.0,65.4,77,77,77,29.97,29.85,7,1,17,0.81
2013-7-14,87.2,75.9,73.2,79.1,64.9,-99.9,77,74,77,30.02,29.92,10,3,20,0.12
2013-7-15,86.3,79.5,72.7,78.2,71.6,65.1,77,77,77,30.02,29.94,10,3,21,0.99
2013-7-16,83.6,78.5,73.7,75.6,70.7,66.0,77,77,77,30.08,29.99,13,6,26,0.18
2013-7-17,80.5,79.0,74.9,72.6,71.2,67.2,77,77,77,30.08,29.98,7,4,15,0.07
2013-7-18,83.8,77.2,73.2,75.8,69.4,65.6,77,77,77,30.06,29.99,11,2,23,0.50
2013-7-19,86.5,80.8,74.4,78.4,72.9,66.7,77,77,77,30.06,29.98,9,3,19,0.00
2013-7-20,86.1,82.1,77.0,78.0,74.1,69.2,77,77,77,30.05,29.97,11,4,22,0.00
2013-7-21,87.4,81.1,74.4,79.3,73.2,66.7,77,77,77,30.09,29.98,7,2,16,0.64
2013-7-22,88.2,82.8,75.6,80.1,74.8,67.9,77,77,77,30.08,30.00,8,3,17,0.00
2013-7-23,89.3,83.5,77.7,81.1,75.5,69.9,77,77,77,30.05,29.90,9,3,19,0.00
2013-7-24,92.1,84.5,78.1,80.3,67.0,43.0,77,60,20,29.95,29.84,9,3,17,0.00
2013-7-25,91.8,84.0,76.5,82.8,73.0,62.6,77,71,39,29.94,29.84,7,3,18,0.00
2013-7-26,90.5,82.5,78.5,81.3,74.0,69.0,77,76,50,29.95,29.87,8,3,18,0.01
2013-7-27,88.2,80.2,76.0,80.1,72.3,68.3,77,77,77,29.93,29.86,9,1,19,0.03
2013-7-28,84.5,79.5,74.0,76.5,71.6,66.3,77,77,77,30.00,29.88,8,1,22,1.18
2013-7-29,88.4,82.5,76.3,80.3,74.6,68.6,77,77,77,30.07,29.95,8,3,16,0.00
2013-7-30,88.4,84.2,76.5,80.3,76.2,68.7,77,77,77,30.09,30.01,9,4,15,0.00
2013-7-31,88.8,84.9,81.2,80.7,76.9,73.3,77,77,77,30.05,29.94,10,5,17,0.00
2013-8-1,88.2,83.9,80.9,77.8,73.5,65.3,77,71,49,29.99,29.88,11,5,20,0.00
2013-8-2,88.4,80.8,76.1,78.0,71.9,63.7,77,75,44,29.99,29.85,6,2,13,0.05
2013-8-3,85.9,78.0,71.6,77.8,70.2,64.0,77,77,77,30.06,29.96,15,1,43,0.51
2013-8-4,90.3,80.2,74.6,82.1,72.3,66.9,77,77,77,30.04,29.91,14,2,30,0.21
2013-8-5,90.3,81.1,76.8,82.1,73.2,69.0,77,77,77,29.97,29.88,8,2,20,0.01
2013-8-6,89.3,82.1,76.3,81.1,74.1,68.6,77,77,77,29.91,29.82,7,2,14,0.00
2013-8-7,87.8,83.5,78.3,79.7,75.5,70.5,77,77,77,29.92,29.83,11,4,22,0.00
2013-8-8,89.0,85.1,82.2,80.8,77.0,73.2,77,77,66,29.95,29.86,9,6,19,0.00
2013-8-9,88.0,83.2,80.7,76.7,72.4,62.7,77,71,48,30.00,29.88,9,5,20,0.05
2013-8-10,89.7,84.8,81.4,77.7,72.0,64.1,77,67,44,30.05,29.97,8,6,18,0.00
2013-8-11,83.6,82.8,82.2,75.2,74.7,73.6,77,77,73,30.04,30.02,6,4,13,0.00
2013-8-12,89.0,84.3,80.3,74.2,67.7,61.1,77,58,42,30.04,29.95,10,4,16,0.00
2013-8-13,88.8,85.0,81.8,76.7,69.3,59.7,77,61,38,29.97,29.89,9,4,17,0.00
2013-8-14,89.0,84.2,77.9,79.7,71.9,64.5,77,68,47,29.95,29.86,9,4,19,0.00
2013-8-15,86.7,81.4,74.9,78.6,73.4,67.2,77,77,69,29.96,29.90,9,3,21,1.74
2013-8-16,88.8,84.0,79.0,80.7,76.0,71.2,77,77,77,29.99,29.91,7,3,15,0.00
2013-8-17,89.0,85.4,82.6,80.8,77.4,74.7,77,77,77,30.01,29.93,10,5,17,0.00
2013-8-18,88.4,84.9,82.8,80.3,76.9,74.8,77,77,77,30.01,29.93,11,6,18,0.01
2013-8-19,89.5,85.3,82.2,80.8,76.8,72.9,77,76,63,30.00,29.90,10,5,18,0.00
2013-8-20,88.8,84.7,80.7,78.4,73.1,66.0,77,69,48,29.99,29.91,10,5,18,0.05
2013-8-21,87.4,83.7,78.8,79.3,75.7,71.0,77,77,77,30.01,29.93,11,6,22,0.04
2013-8-22,88.4,84.7,78.3,80.3,76.7,70.5,77,77,77,30.00,29.89,10,5,19,0.12
2013-8-23,88.6,83.8,79.4,80.5,75.8,71.6,77,77,77,29.95,29.87,8,3,15,0.00
2013-8-24,89.3,84.6,79.8,81.1,76.6,71.9,77,77,77,30.03,29.91,8,3,14,0.00
2013-8-25,85.9,81.7,77.0,77.8,73.7,69.2,77,77,77,30.08,29.96,6,2,14,0.00
2013-8-26,87.6,81.4,73.0,79.3,73.2,65.4,77,76,64,30.05,29.94,9,3,18,0.61
2013-8-27,84.0,78.5,74.7,76.0,70.7,67.0,77,77,77,29.98,29.90,5,1,12,0.05
2013-8-28,87.4,82.1,77.0,79.3,74.1,69.2,77,77,77,29.97,29.89,10,3,22,0.08
2013-8-29,87.8,81.8,74.9,79.7,73.9,67.2,77,77,77,29.96,29.86,7,3,14,0.00
2013-8-30,90.5,83.6,77.7,79.5,72.8,55.9,77,71,32,29.93,29.83,9,3,18,0.00
2013-8-31,82.8,79.9,77.6,74.8,72.0,69.8,77,77,77,29.88,29.84,3,1,9,0.00
2013-9-1,88.2,79.1,74.7,80.1,71.3,67.0,77,77,77,29.93,29.86,5,1,13,0.00
2013-9-2,90.3,79.3,73.3,82.1,71.4,65.7,77,77,77,29.96,29.87,11,2,33,0.78
2013-9-3,88.4,80.1,73.0,80.3,71.6,-99.9,77,76,77,29.95,29.86,7,2,12,0.01
2013-9-4,87.4,83.8,79.8,79.3,75.9,71.9,77,77,77,29.99,29.88,7,2,13,0.00
2013-9-5,88.8,84.4,79.2,80.7,76.4,71.4,77,77,77,30.00,29.93,7,3,13,0.14
2013-9-6,88.8,84.7,79.8,80.7,76.7,71.9,77,77,77,29.96,29.86,7,3,13,0.00
2013-9-7,87.2,78.9,74.0,79.1,71.0,66.3,77,77,77,29.91,29.83,7,1,22,0.03
2013-9-8,88.2,80.4,73.7,80.1,72.5,66.0,77,77,77,29.89,29.79,5,1,13,0.46
2013-9-9,87.4,80.8,73.5,79.3,72.9,65.8,77,77,77,29.93,29.82,7,3,16,0.27
2013-9-10,87.2,82.7,79.2,79.1,74.8,71.4,77,77,77,29.97,29.88,11,5,19,0.03
2013-9-11,84.0,80.3,73.9,76.0,72.4,66.2,77,77,77,29.99,29.90,12,3,26,0.43
2013-9-12,84.7,80.2,74.9,76.7,72.3,67.2,77,77,77,29.93,29.82,4,1,12,1.18
2013-9-13,86.5,81.3,74.7,78.4,73.4,67.0,77,77,77,29.83,29.74,6,2,13,0.11
2013-9-14,89.3,83.3,76.5,81.1,74.4,68.0,77,75,52,29.90,29.75,8,3,13,0.00
2013-9-15,86.1,82.2,79.2,78.0,74.2,71.4,77,77,77,29.97,29.85,10,4,21,0.00
2013-9-16,85.5,81.1,77.7,77.5,73.2,69.9,77,77,77,29.97,29.89,9,5,21,0.20
2013-9-17,81.1,79.1,73.9,73.2,71.2,66.2,77,77,77,29.97,29.85,9,3,18,0.71
2013-9-18,85.3,78.9,74.7,77.3,71.1,67.0,77,77,77,29.94,29.85,6,2,17,0.72
2013-9-19,87.0,80.9,74.6,78.9,73.0,66.9,77,77,77,29.94,29.85,10,4,18,0.04
2013-9-20,86.1,81.7,77.7,74.7,67.5,55.5,77,64,36,29.93,29.83,6,3,16,0.00
2013-9-21,85.7,81.4,76.0,72.6,63.9,57.9,77,56,40,29.84,29.71,6,2,12,0.00
2013-9-22,86.7,82.2,77.4,78.6,74.2,69.6,77,77,72,29.80,29.69,8,2,18,0.14
2013-9-23,86.5,80.6,77.6,78.4,72.7,69.8,77,77,77,29.91,29.78,8,1,19,0.11
2013-9-24,89.9,79.9,75.3,81.7,72.1,67.6,77,77,77,29.90,29.80,7,2,19,1.04
2013-9-25,87.8,80.4,73.5,79.3,70.8,60.2,77,73,41,29.82,29.72,8,3,21,0.30
2013-9-26,89.5,80.5,76.3,81.3,72.6,68.6,77,77,77,29.79,29.71,10,3,28,0.24
2013-9-27,87.0,80.2,74.0,77.7,70.8,61.1,77,74,42,29.85,29.74,7,2,17,0.02
2013-9-28,85.9,80.0,73.9,77.8,72.1,66.2,77,77,77,29.89,29.80,11,3,20,0.03
2013-9-29,85.9,81.3,74.6,74.3,63.7,55.5,77,57,36,29.90,29.81,7,3,14,0.00
2013-9-30,86.5,81.2,73.9,75.0,63.2,57.2,77,56,38,29.93,29.83,6,3,14,0.00
2013-10-1,86.3,82.8,80.1,65.0,62.0,58.2,56,50,40,29.96,29.88,8,5,15,0.00
2013-10-2,86.1,82.5,80.5,68.7,62.6,59.5,67,51,41,29.97,29.90,8,5,17,0.00
2013-10-3,85.9,82.2,79.8,68.8,63.5,57.9,69,54,40,29.99,29.88,7,4,16,0.00
2013-10-4,86.1,82.7,79.2,65.1,61.1,57.5,60,49,39,29.99,29.91,5,3,13,0.00
2013-10-5,87.0,80.8,72.7,76.9,65.9,57.8,77,62,41,29.95,29.86,7,2,14,0.00
2013-10-6,86.7,82.2,77.4,75.6,64.2,51.0,77,56,30,29.89,29.80,6,2,14,0.08
2013-10-7,91.6,79.1,73.2,78.0,66.8,49.7,77,68,24,29.82,29.73,16,2,35,0.24
2013-10-8,89.3,81.0,76.1,79.5,72.0,62.2,77,75,42,29.85,29.77,7,2,17,0.00
2013-10-9,84.1,77.8,73.2,76.1,70.0,65.6,77,77,77,29.91,29.83,9,4,18,0.00
2013-10-10,86.1,79.5,72.0,77.5,68.9,62.7,77,71,48,29.93,29.87,8,3,20,0.00
2013-10-11,85.1,78.5,70.3,75.8,59.3,51.1,77,55,31,29.94,29.87,6,2,15,0.00
2013-10-12,84.9,78.0,68.9,73.9,61.0,51.9,77,58,33,29.95,29.88,6,2,13,0.00
2013-10-13,85.1,78.5,72.5,71.9,56.9,39.2,77,52,20,29.97,29.90,9,2,19,0.00
2013-10-14,85.1,78.5,70.4,72.8,60.2,50.2,77,56,30,29.93,29.83,6,2,14,0.00
2013-10-15,84.7,78.3,71.5,76.0,67.0,57.3,77,69,48,29.88,29.80,7,2,12,0.00
2013-10-16,78.8,75.0,72.3,66.0,61.8,57.4,77,65,48,29.85,29.82,1,0,4,0.00
2013-10-17,85.5,79.9,71.6,75.6,64.4,54.2,77,61,36,29.90,29.82,6,2,13,0.00
2013-10-18,85.9,80.6,73.0,77.7,66.8,60.0,77,64,44,29.91,29.83,7,3,17,0.00
2013-10-19,86.7,82.3,78.3,70.7,62.0,53.0,77,51,32,29.89,29.81,8,4,18,0.00
2013-10-20,87.0,81.4,76.8,78.9,73.1,65.3,77,76,60,29.90,29.80,7,2,14,0.00
2013-10-21,87.6,82.5,76.5,79.5,74.6,68.7,77,77,77,29.93,29.83,8,3,16,0.00
2013-10-22,88.4,82.9,77.7,78.2,72.1,64.4,77,71,45,29.88,29.76,9,3,20,0.00
2013-10-23,87.2,79.9,76.1,78.2,70.0,63.7,77,72,51,29.88,29.74,9,3,17,0.00
2013-10-24,81.1,76.7,72.1,67.4,53.1,41.9,77,47,28,30.02,29.86,8,4,19,0.00
2013-10-25,82.8,76.7,68.4,60.2,48.1,38.9,74,39,21,30.08,29.99,9,4,21,0.00
2013-10-26,82.4,77.0,70.1,50.8,44.5,36.0,50,32,19,30.07,29.98,6,2,15,0.00
2013-10-27,82.6,74.8,66.1,54.9,47.8,40.2,61,40,23,30.02,29.95,6,3,13,0.00
2013-10-28,83.2,78.5,70.8,56.2,47.0,36.6,60,34,19,30.07,29.97,7,3,15,0.00
2013-10-29,83.8,78.8,69.6,66.9,52.6,44.2,77,42,27,30.10,30.01,10,5,20,0.00
2013-10-30,83.4,79.4,76.8,56.9,50.8,46.0,47,37,28,30.11,30.01,10,7,18,0.00
2013-10-31,84.3,80.3,77.6,65.5,57.8,50.8,63,47,34,30.04,29.93,10,6,17,0.02
2013-11-1,85.1,81.0,76.1,67.6,60.9,58.6,75,51,42,29.93,29.82,9,5,19,0.00
2013-11-2,88.4,79.0,70.4,75.8,62.0,40.1,77,62,19,29.85,29.73,7,3,16,0.00
2013-11-3,80.1,74.7,68.6,62.8,50.8,39.5,77,47,26,29.95,29.82,12,7,24,0.00
2013-11-4,80.7,77.1,72.1,59.4,46.9,30.1,64,35,17,30.00,29.93,12,8,26,0.05
2013-11-5,82.4,79.1,77.4,60.2,55.1,49.5,53,44,33,30.02,29.94,12,10,23,0.00
2013-11-6,83.0,78.9,72.8,65.6,54.7,49.1,77,44,31,29.99,29.93,11,6,21,0.00
2013-11-7,84.3,76.5,70.3,76.1,65.7,52.1,77,71,33,29.94,29.85,7,3,16,0.00
2013-11-8,84.3,77.0,71.5,74.1,66.4,53.1,77,71,35,29.97,29.86,11,6,25,0.25
2013-11-9,78.3,76.8,73.9,70.5,69.0,66.2,77,77,77,30.05,29.94,12,8,25,0.12
2013-11-10,82.6,78.7,76.0,74.7,70.8,63.9,77,77,64,30.05,29.98,9,5,18,0.01
2013-11-11,82.4,78.5,76.3,71.0,59.8,45.7,77,55,33,30.05,29.98,9,4,17,0.00
2013-11-12,83.0,77.9,71.5,69.9,54.1,43.6,77,46,26,30.01,29.90,6,2,13,0.00
2013-11-13,76.8,72.1,69.4,63.7,49.1,33.0,77,46,26,30.14,29.92,11,8,27,0.06
2013-11-14,76.7,73.0,69.9,43.8,36.8,28.7,34,27,19,30.17,30.06,13,9,24,0.00
2013-11-15,79.9,76.9,73.7,55.5,50.3,42.2,46,40,32,30.08,29.96,11,8,20,0.00
2013-11-16,80.5,77.8,74.4,70.5,62.5,48.4,77,62,35,30.02,29.95,9,5,19,0.14
2013-11-17,82.6,79.5,77.6,70.7,63.5,53.8,77,59,39,30.00,29.93,10,5,18,0.00
2013-11-18,84.0,77.7,72.0,76.0,69.3,61.6,77,76,57,29.94,29.83,4,1,10,0.01
2013-11-19,83.6,74.9,72.0,75.6,67.2,64.4,77,77,77,29.87,29.78,5,1,12,1.67
2013-11-20,82.6,76.5,69.6,74.7,68.7,62.1,77,77,77,29.99,29.85,6,2,14,0.02
2013-11-21,80.1,76.8,72.8,72.2,69.1,65.2,77,77,77,30.07,29.97,11,6,20,0.78
2013-11-22,80.3,77.7,74.9,72.4,69.9,67.2,77,77,77,30.09,29.99,11,7,20,0.00
2013-11-23,81.6,77.1,70.8,73.7,69.3,63.2,77,77,77,30.01,29.91,8,4,15,0.00
2013-11-24,79.6,73.1,68.1,71.8,65.1,60.6,77,76,63,30.06,29.91,12,5,25,0.58
2013-11-25,74.9,73.2,71.6,67.2,62.5,54.2,77,70,52,30.13,29.97,14,11,27,0.00
2013-11-26,81.2,77.8,73.2,73.3,70.0,65.6,77,77,77,29.97,29.75,14,7,27,0.13
2013-11-27,77.7,70.2,55.6,69.9,58.8,41.1,77,69,28,30.05,29.71,9,5,25,0.54
2013-11-28,73.3,63.4,47.9,61.4,41.5,25.4,77,51,18,30.17,30.04,10,5,18,0.00
2013-11-29,76.8,71.2,59.6,62.7,45.4,32.3,77,43,22,30.19,30.11,9,5,19,0.00
2013-11-30,77.7,71.1,61.6,68.9,56.2,45.9,77,61,37,30.14,30.02,10,4,21,0.05
2013-12-1,79.8,70.4,64.3,71.9,62.7,51.9,77,77,53,30.02,29.85,8,3,16,1.07
2013-12-2,72.7,67.1,61.0,65.1,59.6,53.7,77,77,77,29.85,29.75,5,2,15,0.01
2013-12-3,77.2,70.0,60.2,67.6,56.5,36.1,77,66,23,29.93,29.83,4,1,12,0.00
2013-12-4,80.3,72.8,64.8,72.4,64.4,57.4,77,75,61,30.02,29.91,6,2,14,0.00
2013-12-5,81.4,75.8,66.9,73.5,68.0,59.5,77,77,72,30.09,30.00,8,4,19,0.00
2013-12-6,81.6,77.8,75.4,69.6,57.9,48.1,77,53,32,30.11,30.02,10,5,21,0.00
2013-12-7,81.4,74.8,68.1,73.5,65.6,50.7,77,74,41,30.15,30.07,7,2,15,0.04
2013-12-8,82.0,78.3,74.6,73.5,64.7,53.1,77,64,42,30.14,30.05,11,5,20,0.00
2013-12-9,82.4,78.5,76.5,62.5,51.0,39.4,61,40,22,30.13,30.03,9,5,18,0.00
2013-12-10,82.8,78.1,73.2,67.2,57.3,45.4,77,51,27,30.09,30.01,7,3,15,0.00
2013-12-11,83.0,75.5,69.8,75.0,67.7,62.3,77,77,68,30.13,30.05,5,1,12,0.00
2013-12-12,77.7,72.3,70.1,69.9,62.3,44.4,77,72,38,30.15,30.06,13,5,24,0.01
2013-12-13,77.7,73.6,70.4,62.3,48.4,41.1,64,42,30,30.13,30.01,11,7,23,0.00
2013-12-14,80.9,77.6,75.4,69.9,62.9,56.2,77,62,44,30.04,29.91,10,6,23,0.03
2013-12-15,82.4,76.3,70.6,74.5,68.5,63.0,77,77,77,29.99,29.85,10,3,21,0.00
2013-12-16,73.2,67.1,60.4,65.6,59.7,53.2,77,77,77,30.08,29.96,7,4,15,0.00
2013-12-17,77.4,67.0,59.0,67.6,48.9,35.0,77,58,22,30.11,30.03,6,3,15,0.00
2013-12-18,74.9,66.2,60.1,61.3,47.9,27.1,77,58,18,30.16,30.07,9,4,18,0.00
2013-12-19,76.7,70.3,58.0,62.3,46.5,33.6,77,47,21,30.17,30.08,8,4,16,0.00
2013-12-20,80.1,77.1,73.9,59.8,53.8,48.1,55,45,36,30.12,30.03,11,6,19,0.00
2013-12-21,82.0,78.5,76.7,70.1,63.3,57.5,77,60,45,30.08,29.99,10,7,22,0.00
2013-12-22,82.4,78.8,77.2,70.3,66.1,58.4,77,66,45,30.09,30.01,12,7,24,0.00
2013-12-23,82.2,77.9,71.5,71.6,65.7,59.1,77,67,47,30.11,30.04,10,6,21,0.00
2013-12-24,81.6,72.3,68.1,73.7,64.7,60.6,77,77,77,30.10,30.02,11,4,22,0.00
2013-12-25,76.7,73.4,70.9,65.4,59.3,52.5,77,62,46,30.10,30.03,10,6,20,0.00
2013-12-26,77.7,75.5,73.3,63.2,60.5,56.7,69,60,49,30.10,29.99,7,4,16,0.00
2013-12-27,80.1,76.5,73.9,67.2,59.3,53.6,77,56,41,30.12,30.02,8,5,18,0.01
2013-12-28,79.4,76.5,73.3,68.6,61.5,56.1,77,60,45,30.11,29.94,13,8,23,0.07
2013-12-29,81.4,77.8,74.6,73.5,70.0,66.9,77,77,77,29.96,29.85,10,5,21,0.00
2013-12-30,77.7,72.2,68.6,69.9,64.6,61.1,77,77,77,30.07,29.91,5,2,12,0.02
2013-12-31,78.3,73.1,67.9,69.9,57.4,48.5,77,60,39,30.16,30.03,9,5,19,0.00
2014-1-1,80.3,76.7,73.0,71.0,66.5,52.8,77,71,48,30.12,29.95,11,6,19,0.00
2014-1-2,84.9,77.5,72.1,73.2,58.8,33.0,77,59,16,29.95,29.79,8,4,20,0.00